Hourly Data Report for July 06, 2022

MIRAMICHI RCS
NEW BRUNSWICK
Current Station Operator: ECCC - MSC

47°00'34.000" N
65°27'54.000" W
33.00 m
8100989
71744
ACQ

Download Data

Hourly Data (July 2022)
Hourly Data Report for July 6, 2022
TIME
LST
Temp Definition
°C
Dew Point Definition
°C
Rel Hum Definition
%
Precip. Amount Definition
mm

Wind Dir Definition
10's deg

Wind Spd Definition
km/h
Visibility Definition
km
Stn Press Definition
kPa
Hmdx Definition


Wind Chill Definition


Weather Definition


00:00 18.4 14.0 75 0.0 22 15   100.67     LegendNANA
01:00 17.0 15.0 88 0.0 23 11   100.64     LegendNANA
02:00 16.3 15.2 93 0.4 22 13   100.62     LegendNANA
03:00 15.9 15.3 96 1.3 19 7   100.58     LegendNANA
04:00 15.8 15.2 97 2.3 17 6   100.55     LegendNANA
05:00 15.2 14.5 96 5.4 18 7   100.52     LegendNANA
06:00 14.8 14.1 96 3.7 14 6   100.47     LegendNANA
07:00 14.7 14.0 96 1.2 12 7   100.43     LegendNANA
08:00 14.7 14.0 96 2.3 8 9   100.35     LegendNANA
09:00 14.6 14.0 96 1.7 7 12   100.24     LegendNANA
10:00 14.5 14.0 97 3.7 6 10   100.19     LegendNANA
11:00 14.8 14.3 97 3.1 4 6   100.16     LegendNANA
12:00 15.2 14.4 95 4.3 35 4   100.13     LegendNANA
13:00 14.9 14.0 94 3.5 2 13   100.11     LegendNANA
14:00 15.2 13.8 92 0.8 36 14   100.15     LegendNANA
15:00 16.0 13.8 87 0.2 1 18   100.20     LegendNANA
16:00 16.2 13.2 83 0.0 1 15   100.29     LegendNANA
17:00 16.5 12.6 78 0.0 2 25   100.34     LegendNANA
18:00 15.9 10.7 71 0.0 1 15   100.44     LegendNANA
19:00 15.9 11.0 73 0.0 1 10   100.50     LegendNANA
20:00 14.8 11.2 79 0.0 36 5   100.55     LegendNANA
21:00 13.9 11.3 85 0.0 30 6   100.65     LegendNANA
22:00 12.4 11.0 91 0.0 27 8   100.67     LegendNANA
23:00 12.6 11.4 93 0.0 29 9   100.65     LegendNANA

Notes on Data Quality.

Legend

  • E = Estimated
  • M = Missing
  • NA = Not Available*
  • [empty] = Indicates an unobserved value
Date modified: